"Pseudo-MPEC" for P10OSUb

Created 2019 Jun 15 19:08:44 UT using Find_Orb

Click here for an explanation of pseudo-MPECs

 
 Astrometry: 
     P10OSUb  C2019 05 02.43993 16 54 09.23 -03 14 50.3    ~6AAb 21.0 GVNEOCPG96
     P10OSUb  C2019 05 02.44508 16 54 09.10 -03 14 46.4    ~6AAb 20.8 GVNEOCPG96
     P10OSUb  C2019 05 02.45024 16 54 09.04 -03 14 43.5    ~6AAb 21.1 GVNEOCPG96
     P10OSUb  C2019 05 02.45541 16 54 08.95 -03 14 40.1    ~6AAb 20.6 GVNEOCPG96
     P10OSUb  C2019 05 04$u1jF:/9H@'fVtng\2rll8DYVmsi!OY8:#^/2QW,XwbRl*i$V[pnF51
     P10OSUb  C2019 05 04YOKL#n(?waW8?pGQG$8Z!fG*ULajv/I4P)(XHsZr8*?D+w\eR\RAF51
     P10OSUb  C2019 05 07a\REU(Z+echv]Hnu,g?7UWq8/K3p+I-nXj(cUyMCudED9Q13C*hUF51
     P10OSUb  C2019 05 07ZcGYep\r?:b!Wr*;PHaNbl9uiC=ixxRXEfCp5pXjMPE2FuZa#B-qF51
     P10OSUb  C2019 05 07w`5@8gsq29:\;0q1Cb8MaJs6+Z9'hUyeoh_.UXYAKM$@8O+[kD.RF51
     P10OSUb  C2019 05 07n(hy['^7Z#`cHWu'RGU0gm`s(+=6^1reiblMSQm(:95wk6,VXSQ[F51
     P10OSUb  C2019 05 26!HL93D@Rg\x;i$F\``xyOPEf\!D6qOqrQC2B,q/ho$WtJmZdF4:vF52
     P10OSUb  C2019 05 26.37226 16 39 49.73 +00 44 27.1    ~6A57 20.2 GVNEOCPG96
     P10OSUb  C2019 05 26.37735 16 39 49.50 +00 44 29.1    ~6A57 20.0 GVNEOCPG96
     P10OSUb  C2019 05 26YZX4Xn+a@Wl=C09)'#KQ'\K,P_pvMdr,x*tVS%qs7cj4t*U-i,4LF52
     P10OSUb  C2019 05 26.38244 16 39 49.18 +00 44 31.5    ~6A57 20.9 GVNEOCPG96
     P10OSUb  C2019 05 26.38753 16 39 48.90 +00 44 33.9    ~6A57 20.6 GVNEOCPG96
     P10OSUb  C2019 05 261tKkRx/$_..Ya964PyYdMc\]pLC^xU3TZ$,Xg0=uQnZj*H@]'^eDF52
     P10OSUb  C2019 05 26AH:mkSEfyZD_m1o0agaU!+9Astrometry$Kv+daP_cD,/QQ/=*j;F52
     P10OSUb  C2019 06 02i7'8GhYcw[H6_tfD8(Nwks)$4redacted;0BT7akyl,X/]mXsR,`F51
     P10OSUb  C2019 06 02Qxh%u3RX4WlxSd,jKQ/$Co6-S*?6%@g#bGxvyVd0cfHT7y=ov2+]F51
     P10OSUb  C2019 06 02?i'@G*]H\YHlw2n9vZa*K:G@63t-oP-OX'Qdyyw!Et4:g0NNnB;tF51
     P10OSUb  C2019 06 093(Ta5J7vSI$*fB*?@_dnsX\]-dQa-F5@Oj'dnraGBeRba6['uyPIF51
     P10OSUb  C2019 06 09X2,?P8Z]^IW39^xaW9/SX;;?+v!ZOQ)-=jm(:+fdbTWclick!,?2F51
     P10OSUb  C2019 06 09E(e#wZv(0Qb_(FGy6MGh,^,H8cID([C0aZwijN,*1,QdBXe:FqR,F51
     P10OSUb KC2019 06 10@EpCCxYgcYgJnn8GTv2`MP\,P,ghere(9aM/+qa8$QYOyRw8S+4eK88
     P10OSUb KC2019 06 10ko'eW.S9!nAdylLq*PIcYHo0:H;)g`E]gGHx/U81J3O#%!u/,xL?K88
     P10OSUb KC2019 06 10FBPaDkj2RiosjqLyMddQw:TVo)e!'kA(3qi23DHVmvFdHEkfdBc$K88
     P10OSUb HC2019 06 11Qss4^OpOJx=AgO7TM`0@\V*^UPJ?LgwW`KlDbMJ:DE'M\5vE@2U%691
     P10OSUb HC2019 06 11p0Ut*[a'9GR_E,GsV;qUBEl1Eh0fUeE%OY[;;NcG3.T4[dOS@Kx2691
     P10OSUb HC2019 06 11\CTlccW.Cabw@x85L!]:07NEUXxu)v-ftb2]%DFH+bE%`^;g_x[I691
     P10OSUb KC2019 06 12i/oDgG@qD'7C#UIG!qRdqX$UsEnKr:6A8Wh2(f:s*7wfor:`D;2Q691
     P10OSUb KC2019 06 12Y)/8^\],-d$!TE9ehnT@A9explanation1Sr=H^n\g#t%9W1uj!O691
     P10OSUb KC2019 06 12in;Wtcfn*%#2R@Z64#kj\^HG^C7_M[-Bl(_Xvi7VFI.f*DT!yk]]691
     P10OSUb  C2019 06 13.20451 16 23 25.37 +02 15 55.9    ~6D5b       VNEOCPI52
     P10OSUb  C2019 06 13.20966 16 23 25.06 +02 15 57.4    ~6D5b       VNEOCPI52

Station data:
(691) Steward Observatory, Kitt Peak - Spacewatch  (N31.962174 W111.600327)
   US/Arizona.  Observer J. V. Scotti. 0.9-m f/3 reflector + CCD.
(F51) Pan-STARRS 1, Haleakala  (N20.707235 W156.255910)  US/Hawaii.
   Observers N. Primak, A. Schultz, S. Watters, J. Thiel, T. Goggia. Measurer
   PS1 Science Consortium. 1.8-m Ritchey-Chrétien + CCD.
(F52) Pan-STARRS 2, Haleakala  (N20.707384 W156.255910)  US/Hawaii. 1.8-m
   Ritchey-Chrétien + CCD.
(G96) Mt. Lemmon Survey  (N32.442754 W110.788720)  US/Arizona.  Observers T.
   A. Pruyne, B. M. Africano, E. J. Christensen, G. A. Farneth, D. C. Fuls,
   A. R. Gibbs, A. D. Grauer, H. Groeller, J. A. Johnson, R. A. Kowalski, S.
   M. Larson, G. J. Leonard, R. L. Seaman, F. C. Shelly. 1.5-m reflector +
   10K CCD.
(I52) Steward Observatory, Mt. Lemmon Station  (N32.442547 W110.788920)
   US/Arizona.  Observers T. A. Pruyne, B. M. Africano, E. J. Christensen, G.
   A. Farneth, D. C. Fuls, A. R. Gibbs, A. D. Grauer, H. Groeller, J. A.
   Johnson, R. A. Kowalski, S. M. Larson, G. J. Leonard, R. L. Seaman, F. C.
   Shelly. 1.0-m reflector + CCD.
(K88) GINOP-KHK, Piszkéstető  (N47.917622 E19.893600)  Hungary.  Observer K.
   Sárneczky. 0.60-m Schmidt + CCD.

Orbital elements:  P10OSUb
   Perihelion 2019 Oct 25.797434 +/- 0.00948 TT = 19:08:18 (JD 2458782.297434)
Epoch 2019 Jun 13.0 TT = JDT 2458647.5   Earth MOID: 0.6164   AutoNEOCP
M 322.32177316 +/- 0.0016           (J2000 ecliptic)
n   0.27951738 +/- 2.1e-5           Peri.  148.37617 +/- 0.006
a   2.31666637 +/- 0.000116         Node   171.48664 +/- 0.0033
e   0.3021697 +/- 5.09e-5           Incl.   11.44842 +/- 0.00055
P   3.53                   H 18.5   G  0.15   U  5.5  
q 1.61663986 +/- 7.39e-5    Q 3.01669288 +/- 0.000254
From 35 observations 2019 May 2-June 13; mean residual 0".31
Residuals in arcseconds: 
190502 G96  .19+  .14-    190526 G96  .53+  .15-    190610 K88  .50+  .38+    
190502 G96  .38-  .36+    190526 F52  .21+  .18-    190610 K88  .04+  .57+    
190502 G96  .10+  .15-    190526 G96  .04-  .18-    190610 K88  .03+  .35+    
190502 G96  .13+  .16-    190526 G96  .02-  .21-    190611 691  .06-  .57+    
190504 F51  .10-  .03+    190526 F52  .20-  .03-    190611 691  .19-  .36+    
190504 F51  .14+  .04-    190526 F52  .02+  .08-    190611 691  .18-  .35+    
190507 F51  .03-  .06+    190602 F51  .06-  .06-    190612 691  .05-  .28+    
190507 F51  .07+  .05+    190602 F51  .08-  .01-    190612 691  .01+  .50+    
190507 F51  .03-  .10+    190602 F51  .00   .06-    190612 691  .05-  .64+    
190507 F51  .04-  .12+    190609 F51  .02+  .00     190613 I52  .17+  1.7-    
190526 F52  .32-  .23-    190609 F51  .04-  .00     190613 I52  .15-  .76-    
190526 G96  .25-  .28+    190609 F51  .00   .01+    

Ephemerides (geocentric):
Date (UTC) HH   RA              Dec         delta   r     elong  mag " sig PA
---- -- -- --  -------------   -----------  ------ ------ -----  --- ---- ---
2019 06 15 19  16 21 11.212   +02 19 44.81  .92426 1.8686 148.8 20.6 .153  25
2019 06 15 20  16 21 09.108   +02 19 47.13  .92426 1.8684 148.7 20.6 .154  25
2019 06 15 21  16 21 07.006   +02 19 49.41  .92427 1.8683 148.7 20.6 .155  25
2019 06 15 22  16 21 04.905   +02 19 51.64  .92427 1.8682 148.7 20.6 .156  25
2019 06 15 23  16 21 02.806   +02 19 53.84  .92427 1.8680 148.6 20.6 .157  25
2019 06 16 00  16 21 00.709   +02 19 55.99  .92427 1.8679 148.6 20.6 .158  25
2019 06 16 01  16 20 58.614   +02 19 58.11  .92428 1.8678 148.6 20.6 .159  24
2019 06 16 02  16 20 56.521   +02 20 00.19  .92428 1.8676 148.6 20.6 .160  24
2019 06 16 03  16 20 54.429   +02 20 02.22  .92428 1.8675 148.5 20.6 .161  24
2019 06 16 04  16 20 52.340   +02 20 04.22  .92429 1.8674 148.5 20.6 .162  24
2019 06 16 05  16 20 50.252   +02 20 06.17  .92429 1.8672 148.5 20.6 .163  24
2019 06 16 06  16 20 48.166   +02 20 08.09  .92430 1.8671 148.4 20.6 .164  24
2019 06 16 07  16 20 46.082   +02 20 09.96  .92430 1.8670 148.4 20.6 .165  24
2019 06 16 08  16 20 44.000   +02 20 11.80  .92431 1.8668 148.4 20.6 .166  24
2019 06 16 09  16 20 41.920   +02 20 13.59  .92431 1.8667 148.3 20.6 .167  24
2019 06 16 10  16 20 39.841   +02 20 15.35  .92432 1.8665 148.3 20.6 .168  24
2019 06 16 11  16 20 37.765   +02 20 17.06  .92432 1.8664 148.3 20.6 .169  24
2019 06 16 12  16 20 35.690   +02 20 18.74  .92433 1.8663 148.2 20.6 .170  24
2019 06 16 13  16 20 33.617   +02 20 20.37  .92433 1.8661 148.2 20.6 .171  24
2019 06 16 14  16 20 31.547   +02 20 21.97  .92434 1.8660 148.2 20.6 .172  24
2019 06 16 15  16 20 29.478   +02 20 23.52  .92435 1.8659 148.1 20.6 .173  23
2019 06 16 16  16 20 27.411   +02 20 25.03  .92436 1.8657 148.1 20.6 .174  23
2019 06 16 17  16 20 25.346   +02 20 26.51  .92436 1.8656 148.1 20.6 .175  23
2019 06 16 18  16 20 23.282   +02 20 27.94  .92437 1.8655 148.1 20.6 .176  23
2019 06 16 19  16 20 21.221   +02 20 29.33  .92438 1.8653 148.0 20.6 .177  23
2019 06 16 20  16 20 19.162   +02 20 30.69  .92439 1.8652 148.0 20.6 .178  23
2019 06 16 21  16 20 17.105   +02 20 32.00  .92440 1.8651 148.0 20.6 .179  23
2019 06 16 22  16 20 15.049   +02 20 33.27  .92441 1.8649 147.9 20.6 .180  23
2019 06 16 23  16 20 12.996   +02 20 34.51  .92442 1.8648 147.9 20.6 .181  23
2019 06 17 00  16 20 10.944   +02 20 35.70  .92443 1.8647 147.9 20.6 .182  23
2019 06 17 01  16 20 08.895   +02 20 36.85  .92444 1.8645 147.8 20.6 .183  23
2019 06 17 02  16 20 06.847   +02 20 37.96  .92445 1.8644 147.8 20.6 .184  23
2019 06 17 03  16 20 04.802   +02 20 39.04  .92446 1.8643 147.8 20.6 .185  23
2019 06 17 04  16 20 02.758   +02 20 40.07  .92447 1.8641 147.7 20.6 .186  23
2019 06 17 05  16 20 00.717   +02 20 41.06  .92448 1.8640 147.7 20.6 .187  22
2019 06 17 06  16 19 58.677   +02 20 42.01  .92449 1.8638 147.7 20.6 .189  22
2019 06 17 07  16 19 56.640   +02 20 42.92  .92450 1.8637 147.6 20.6 .190  22
2019 06 17 08  16 19 54.604   +02 20 43.79  .92452 1.8636 147.6 20.6 .191  22
2019 06 17 09  16 19 52.570   +02 20 44.63  .92453 1.8634 147.6 20.6 .192  22
2019 06 17 10  16 19 50.539   +02 20 45.42  .92454 1.8633 147.5 20.6 .193  22
2019 06 17 11  16 19 48.509   +02 20 46.17  .92455 1.8632 147.5 20.6 .194  22
2019 06 17 12  16 19 46.482   +02 20 46.88  .92457 1.8630 147.5 20.6 .195  22
2019 06 17 13  16 19 44.456   +02 20 47.55  .92458 1.8629 147.4 20.6 .196  22
2019 06 17 14  16 19 42.433   +02 20 48.18  .92460 1.8628 147.4 20.6 .197  22
2019 06 17 15  16 19 40.412   +02 20 48.77  .92461 1.8626 147.4 20.6 .198  22
2019 06 17 16  16 19 38.392   +02 20 49.32  .92462 1.8625 147.4 20.6 .199  22
2019 06 17 17  16 19 36.375   +02 20 49.83  .92464 1.8624 147.3 20.6 .200  22
2019 06 17 18  16 19 34.360   +02 20 50.31  .92465 1.8622 147.3 20.6 .201  22